VRSS-1

Satellite information

Favourite Embed

Satellite Type and Status

PAYLOADIN ORBIT

Key statistics

Satellite VRSS-1 at a glance.

Uptime

4824

Days in orbit

Revolutions

≈ 14.8

Per day

Orbit

SSO

Sun Synchronous Orbit

Inclination

97.6

Latest

Satellite identification and parameters

Extended collection of information and parameters for VRSS-1.

Object identification

Identified? True

Debris? False

Object name: VRSS-1

International designator: 2012-052A

Object number (NORAD): 38782

Object ID (CCSDS): 38782

Country: VENEZUELA (VENZ)

Current information (Y/N): Y

RCS size: LARGE

Orbital parameters

Period: 97.328 minutes

Inclination: 97.5962 deg

SMA: 7008.949 km

Apoapsis: 644.179 km

Periapsis: 617.449 km

RAAN: 327.3945 deg

Eccentricy: 0.00190681

Argument of periapsis: 124.7786 deg

Mean anomaly: 235.5225 deg

Mean motion: 14.79528756 rev/day

Mean motion (dot): 0.00002531 rev/day2

B* drag term: 0.00034377395 1/REarth

Two-line elements (TLE)

Creation date: Dec. 12, 2025, 10:14 a.m.

Reference frame: TEME

Reference center: EARTH

Epoch: Dec. 12, 2025, 4:28 a.m. UTC

TLE line 0: 0 VRSS-1

TLE line 1: 1 38782U 12052A 25346.18615987 .00002531 00000-0 34377-3 0 9991

TLE line 2: 2 38782 97.5962 327.3945 0019068 124.7786 235.5225 14.79528756711951

Live tracking on map

Real-time ground track for satellite VRSS-1.

In-orbit conjunctions

There are no conjunctions computed for VRSS-1, at the moment. Check back to stay up to date, as we update our databases every day.

Go to all conjunctions

Associated space launch

VRSS-1 was lifted into orbit during the mission ‘Long March 2D | VRSS-1’, on board a Long March 2D space rocket.

The launch took place on Sept. 29, 2012, 4:12 a.m. from Launch Area 94 (SLS-2 / 603).

For more information about the launch, click the button.

Launch to space Long March 2D | VRSS-1
Long March 2D | VRSS-1

Agency: N/A

Status: Launch Successful

Launch date: Sept. 29, 2012, 4:12 a.m. UTC

Rocket: Long March 2D

Launch pad: Launch Area 94 (SLS-2 / 603)

Location: Jiuquan Satellite Launch Center, People's Republic of China

...

Latest news about this satellite

There are no fresh news available about this satellite. Check back as we update our databases every day.


Newsletter sign-up

Weekly statistics, charts and insights to help you stay on top of the space industry.